Location: Boitzum
(52.1496°N, 9.6943°E)
Time: 07:11:47
(UTC+00:00)

CZ-4C R/B - Pass Details

Date: 13 January 2026
Orbit: 482 x 1496 km, 63.4° (Epoch: 18 February)

Event Time Altitude Azimuth Distance (km) Brightness Sun altitude
Exits shadow 03:35:09 27° 18° (NNE) 1,648 3.8 -34.3°
Drops below altitude 10° 03:39:05 10° 48° (NE) 2,795 5.5 -33.7°
Sets 03:42:24 0° 58° (ENE) 3,938 6.5 -33.2°
